TimeCDT,TemperatureF,Dew PointF,Humidity,Sea Level PressureIn,VisibilityMPH,Wind Direction,Wind SpeedMPH,Gust SpeedMPH,PrecipitationIn,Events,Conditions,WindDirDegrees,DateUTC
12:15 AM,73.4,69.8,88,30.03,10.0,SSE,8.1,-,N/A,,Clear,150,2013-08-24 05:15:00
12:35 AM,73.4,69.8,88,30.03,10.0,SSE,9.2,-,N/A,,Clear,150,2013-08-24 05:35:00
12:55 AM,73.4,69.8,88,30.03,10.0,SSE,9.2,-,N/A,,Clear,150,2013-08-24 05:55:00
1:15 AM,73.4,69.8,88,30.03,10.0,SSE,8.1,-,N/A,,Clear,160,2013-08-24 06:15:00
1:35 AM,73.4,69.8,88,30.03,10.0,SSE,9.2,-,N/A,,Clear,150,2013-08-24 06:35:00
1:55 AM,73.4,69.8,88,30.03,10.0,South,9.2,-,N/A,,Clear,170,2013-08-24 06:55:00
2:15 AM,73.4,69.8,88,30.04,10.0,South,8.1,-,N/A,,Clear,180,2013-08-24 07:15:00
2:35 AM,73.4,69.8,88,30.04,10.0,South,8.1,-,N/A,,Clear,170,2013-08-24 07:35:00
2:55 AM,73.4,69.8,88,30.04,10.0,South,8.1,-,N/A,,Clear,170,2013-08-24 07:55:00
3:15 AM,73.4,69.8,88,30.04,10.0,South,8.1,-,N/A,,Clear,180,2013-08-24 08:15:00
3:35 AM,73.4,69.8,88,30.04,10.0,South,9.2,-,N/A,,Clear,170,2013-08-24 08:35:00
3:55 AM,73.4,69.8,88,30.04,10.0,South,9.2,-,N/A,,Clear,180,2013-08-24 08:55:00
4:15 AM,73.4,69.8,88,30.04,10.0,South,9.2,-,N/A,,Partly Cloudy,170,2013-08-24 09:15:00
4:35 AM,73.4,69.8,88,30.05,10.0,South,9.2,-,N/A,,Clear,170,2013-08-24 09:35:00
4:55 AM,73.4,69.8,88,30.05,10.0,South,9.2,-,N/A,,Clear,170,2013-08-24 09:55:00
5:15 AM,73.4,69.8,88,30.05,10.0,SSE,9.2,-,N/A,,Partly Cloudy,160,2013-08-24 10:15:00
5:35 AM,71.6,69.8,94,30.06,9.0,SSE,8.1,-,N/A,,Light Drizzle,150,2013-08-24 10:35:00
5:55 AM,71.6,69.8,94,30.07,8.0,SSE,10.4,-,N/A,,Light Drizzle,150,2013-08-24 10:55:00
6:15 AM,71.6,69.8,94,30.07,10.0,SSE,8.1,-,N/A,,Mostly Cloudy,150,2013-08-24 11:15:00
6:35 AM,71.6,69.8,94,30.07,10.0,SSE,10.4,-,N/A,,Overcast,150,2013-08-24 11:35:00
6:55 AM,71.6,69.8,94,30.07,9.0,SSE,10.4,-,N/A,,Scattered Clouds,150,2013-08-24 11:55:00
7:15 AM,71.6,69.8,94,30.08,10.0,SE,10.4,-,N/A,,Clear,140,2013-08-24 12:15:00
7:35 AM,71.6,69.8,94,30.08,9.0,SSE,11.5,-,N/A,,Clear,160,2013-08-24 12:35:00
7:55 AM,71.6,69.8,94,30.08,9.0,SSE,10.4,-,N/A,,Clear,150,2013-08-24 12:55:00
8:15 AM,73.4,69.8,88,30.08,10.0,SSE,11.5,-,N/A,,Clear,160,2013-08-24 13:15:00
8:35 AM,73.4,71.6,94,30.08,10.0,SSE,11.5,-,N/A,,Clear,150,2013-08-24 13:35:00
8:55 AM,75.2,71.6,89,30.08,10.0,SSE,11.5,-,N/A,,Clear,150,2013-08-24 13:55:00
9:15 AM,75.2,71.6,89,30.08,10.0,SSE,15.0,-,N/A,,Clear,160,2013-08-24 14:15:00
9:35 AM,77.0,71.6,83,30.08,10.0,SSE,12.7,20.7,N/A,,Clear,160,2013-08-24 14:35:00
9:55 AM,78.8,71.6,78,30.08,10.0,South,12.7,19.6,N/A,,Clear,170,2013-08-24 14:55:00
10:15 AM,80.6,73.4,79,30.08,10.0,SSE,10.4,16.1,N/A,,Clear,160,2013-08-24 15:15:00
10:35 AM,80.6,73.4,79,30.09,10.0,SSE,12.7,-,N/A,,Clear,150,2013-08-24 15:35:00
10:55 AM,80.6,73.4,79,30.09,10.0,SSE,10.4,-,N/A,,Clear,150,2013-08-24 15:55:00
11:15 AM,80.6,73.4,79,30.09,10.0,SSE,11.5,-,N/A,,Clear,150,2013-08-24 16:15:00
11:35 AM,80.6,73.4,79,30.09,10.0,SSE,10.4,-,N/A,,Clear,150,2013-08-24 16:35:00
11:55 AM,82.4,73.4,74,30.09,10.0,SSE,12.7,-,N/A,,Clear,150,2013-08-24 16:55:00
12:15 PM,84.2,75.2,74,30.09,10.0,SSE,10.4,-,N/A,,Clear,150,2013-08-24 17:15:00
12:35 PM,84.2,75.2,74,30.07,10.0,SSE,13.8,-,N/A,,Clear,160,2013-08-24 17:35:00
12:55 PM,84.2,73.4,70,30.07,10.0,South,16.1,-,N/A,,Clear,170,2013-08-24 17:55:00
1:15 PM,86.0,73.4,66,30.07,10.0,SSE,17.3,23.0,N/A,,Clear,160,2013-08-24 18:15:00
1:35 PM,86.0,73.4,66,30.06,10.0,South,16.1,-,N/A,,Clear,170,2013-08-24 18:35:00
1:55 PM,86.0,73.4,66,30.06,10.0,SSE,17.3,-,N/A,,Clear,160,2013-08-24 18:55:00
2:15 PM,86.0,75.2,70,30.05,10.0,SSE,15.0,20.7,N/A,,Clear,160,2013-08-24 19:15:00
2:35 PM,87.8,75.2,66,30.05,10.0,SSE,17.3,-,N/A,,Clear,150,2013-08-24 19:35:00
2:55 PM,89.6,75.2,62,30.05,10.0,South,16.1,-,N/A,,Clear,170,2013-08-24 19:55:00
3:15 PM,89.6,73.4,59,30.04,10.0,South,17.3,25.3,N/A,,Clear,170,2013-08-24 20:15:00
3:35 PM,87.8,73.4,62,30.04,10.0,South,20.7,-,N/A,,Clear,170,2013-08-24 20:35:00
3:55 PM,89.6,73.4,59,30.03,10.0,South,19.6,26.5,N/A,,Clear,170,2013-08-24 20:55:00
4:15 PM,89.6,75.2,62,30.03,10.0,SSE,17.3,26.5,N/A,,Clear,160,2013-08-24 21:15:00
4:35 PM,89.6,75.2,62,30.02,10.0,South,20.7,-,N/A,,Clear,170,2013-08-24 21:35:00
4:55 PM,89.6,75.2,62,30.02,10.0,SSE,20.7,26.5,N/A,,Clear,160,2013-08-24 21:55:00
5:15 PM,87.8,75.2,66,30.02,10.0,South,18.4,25.3,N/A,,Clear,170,2013-08-24 22:15:00
5:35 PM,87.8,75.2,66,30.02,10.0,South,16.1,23.0,N/A,,Clear,170,2013-08-24 22:35:00
5:55 PM,87.8,75.2,66,30.02,10.0,South,13.8,21.9,N/A,,Clear,170,2013-08-24 22:55:00
6:15 PM,87.8,75.2,66,30.02,10.0,South,10.4,19.6,N/A,,Clear,180,2013-08-24 23:15:00
6:35 PM,86.0,73.4,66,30.02,10.0,South,17.3,-,N/A,,Clear,180,2013-08-24 23:35:00
6:55 PM,86.0,73.4,66,30.02,10.0,South,16.1,-,N/A,,Clear,180,2013-08-24 23:55:00
7:15 PM,86.0,73.4,66,30.02,10.0,South,12.7,-,N/A,,Clear,180,2013-08-25 00:15:00
7:35 PM,84.2,73.4,70,30.03,10.0,SSE,11.5,-,N/A,,Clear,160,2013-08-25 00:35:00
7:55 PM,82.4,73.4,74,30.03,10.0,SSE,12.7,-,N/A,,Clear,160,2013-08-25 00:55:00
8:15 PM,82.4,73.4,74,30.03,10.0,SSE,11.5,-,N/A,,Clear,160,2013-08-25 01:15:00
8:35 PM,80.6,73.4,79,30.04,10.0,SSE,11.5,-,N/A,,Clear,150,2013-08-25 01:35:00
8:55 PM,80.6,73.4,79,30.04,10.0,SSE,10.4,-,N/A,,Clear,160,2013-08-25 01:55:00
9:15 PM,80.6,73.4,79,30.06,10.0,SSE,10.4,-,N/A,,Clear,160,2013-08-25 02:15:00
9:35 PM,78.8,73.4,83,30.06,10.0,SSE,11.5,-,N/A,,Clear,150,2013-08-25 02:35:00
9:55 PM,78.8,73.4,83,30.07,10.0,SSE,13.8,20.7,N/A,,Clear,160,2013-08-25 02:55:00
10:15 PM,78.8,73.4,83,30.06,10.0,SSE,12.7,19.6,N/A,,Clear,160,2013-08-25 03:15:00
10:35 PM,78.8,71.6,78,30.07,10.0,South,13.8,19.6,N/A,,Clear,170,2013-08-25 03:35:00
10:55 PM,78.8,71.6,78,30.07,10.0,SSE,12.7,-,N/A,,Clear,160,2013-08-25 03:55:00
11:15 PM,78.8,71.6,78,30.07,10.0,South,10.4,16.1,N/A,,Clear,170,2013-08-25 04:15:00
11:35 PM,77.0,71.6,83,30.08,10.0,South,9.2,-,N/A,,Clear,180,2013-08-25 04:35:00
11:55 PM,77.0,71.6,83,30.08,10.0,South,8.1,-,N/A,,Clear,170,2013-08-25 04:55:00